Location: Mat�lon
(46.2791°N, 7.1028°E)
Time: 02:07:36
(UTC+00:00)

Cosmos 1626 - Pass Details

Date: 18 September 2020
Orbit: 490 x 495 km, 82.5° (Epoch: 29 October)

Event Time Altitude Azimuth Distance (km) Brightness Sun altitude
Rises 20:13:30 0° 350° (N) 2,589 6.4 -26.4°
Reaches altitude 10° 20:15:37 10° 350° (N) 1,700 5.3 -26.7°
Enters shadow 20:17:25 27° 349° (N) 979 3.9 -26.9°
